York, NE

4:34 AM CST on January 18, 2018 (GMT -0600)
York Municipal

Weather History for KJYR - February, 2014

Change the Weather History Date:

Saturday, February 15, 2014

  Actual Average Record
Temperature  
Mean Temperature 40 °F -  
Max Temperature 57 °F 35 °F 62 °F (2011)
Min Temperature 23 °F 16 °F -8 °F (1958)
Degree Days  
Heating Degree Days 25    
Moisture  
Dew Point 25 °F    
Average Humidity 68    
Maximum Humidity 87    
Minimum Humidity 26    
Precipitation  
Precipitation 0.00 in - - ()
Sea Level Pressure  
Sea Level Pressure 29.90 in    
Wind  
Wind Speed 12 mph (WSW)    
Max Wind Speed 31 mph    
Max Gust Speed 38 mph    
Visibility 10 miles    
Events Thunderstorm    
Averages and records for this station are not official NWS values.
T = Trace of Precipitation, MM = Missing Value Source: NWS Daily Summary

Daily Weather History Graph

Daily Weather History Graph

Search for Another Location

Airport or City:

Trip Planner

Search our weather history database for the weather conditions in past years. The results will help you decide how hot, cold, wet, or windy it might be!

Date:

Astronomy

Feb. 15, 2014 Rise Set
Actual Time 7:24 AM CST 6:05 PM CST
Civil Twilight 6:56 AM CST 6:33 PM CST
Nautical Twilight 6:24 AM CST 7:05 PM CST
Astronomical Twilight 5:52 AM CST 7:37 PM CST
Moon 7:07 PM CST (2/15) 7:23 AM CST (2/15)
Length of Visible Light 11h 36m
Length of Day
10h 40m
Waxing Gibbous, 99% of the Moon is Illuminated
Feb 15
Waxing Gibbous
Feb 22
Last Quarter
Mar 1
New
Mar 8
First Quarter
Mar 16
Full

Hourly Weather History & Observations

Time (CST) Temp. Windchill Dew Point Humidity Pressure Visibility Wind Dir Wind Speed Gust Speed Precip Events Conditions
12:15 AM 23.0 °F 14.7 °F 19.4 °F 86% 30.00 in 10.0 mi South 6.9 mph - N/A   Clear
12:35 AM 23.0 °F 14.7 °F 17.6 °F 80% 29.99 in 10.0 mi South 6.9 mph - N/A   Clear
12:55 AM 23.0 °F 13.1 °F 19.4 °F 86% 29.99 in 10.0 mi South 9.2 mph - N/A   Mostly Cloudy
1:15 AM 24.8 °F 14.6 °F 19.4 °F 80% 29.98 in 10.0 mi South 10.4 mph - N/A   Mostly Cloudy
1:35 AM 24.8 °F 16.1 °F 19.4 °F 80% 29.98 in 10.0 mi South 8.1 mph - N/A   Overcast
1:55 AM 24.8 °F 16.9 °F 21.2 °F 86% 29.98 in 10.0 mi South 6.9 mph - N/A   Overcast
2:15 AM 24.8 °F 15.3 °F 21.2 °F 86% 29.96 in 10.0 mi South 9.2 mph - N/A   Overcast
2:35 AM 26.6 °F 18.2 °F 21.2 °F 80% 29.95 in 10.0 mi SSE 8.1 mph - N/A   Overcast
2:55 AM 26.6 °F 16.2 °F 21.2 °F 80% 29.94 in 10.0 mi South 11.5 mph - N/A   Overcast
3:15 AM 26.6 °F 15.2 °F 23.0 °F 86% 29.92 in 10.0 mi SSE 13.8 mph - N/A Thunderstorm Thunderstorm
3:35 AM 26.6 °F 16.8 °F 23.0 °F 86% 29.92 in 10.0 mi South 10.4 mph - N/A   Overcast
3:55 AM 26.6 °F 15.7 °F 23.0 °F 86% 29.90 in 10.0 mi South 12.7 mph - N/A   Overcast
4:15 AM 26.6 °F 15.2 °F 23.0 °F 86% 29.87 in 10.0 mi South 13.8 mph - N/A   Overcast
4:35 AM 26.6 °F 14.7 °F 23.0 °F 86% 29.86 in 10.0 mi South 15.0 mph - N/A   Overcast
4:55 AM 26.6 °F 14.7 °F 23.0 °F 86% 29.84 in 10.0 mi South 15.0 mph 21.9 mph N/A   Overcast
5:15 AM 26.6 °F 14.7 °F 23.0 °F 86% 29.84 in 10.0 mi South 15.0 mph - N/A   Overcast
5:35 AM 26.6 °F 13.4 °F 23.0 °F 86% 29.85 in 10.0 mi South 18.4 mph - N/A   Overcast
5:55 AM 28.4 °F 16.6 °F 24.8 °F 86% 29.83 in 10.0 mi South 16.1 mph 19.6 mph N/A   Overcast
6:15 AM 28.4 °F 17.5 °F 24.8 °F 86% 29.83 in 10.0 mi South 13.8 mph - N/A   Overcast
6:35 AM 28.4 °F 17.5 °F 24.8 °F 86% 29.82 in 10.0 mi South 13.8 mph - N/A   Overcast
6:55 AM 28.4 °F 18.0 °F 24.8 °F 86% 29.82 in 10.0 mi South 12.7 mph - N/A   Overcast
7:15 AM 28.4 °F 18.5 °F 24.8 °F 86% 29.79 in 10.0 mi South 11.5 mph - N/A   Overcast
7:35 AM 28.4 °F 18.0 °F 24.8 °F 86% 29.79 in 10.0 mi South 12.7 mph - N/A   Overcast
7:55 AM 28.4 °F 19.1 °F 24.8 °F 86% 29.83 in 10.0 mi South 10.4 mph - N/A   Overcast
8:15 AM 30.2 °F 20.8 °F 24.8 °F 80% 29.84 in 10.0 mi SSW 11.5 mph - N/A   Overcast
8:35 AM 30.2 °F 20.8 °F 26.6 °F 86% 29.84 in 10.0 mi SSW 11.5 mph - N/A   Overcast
8:55 AM 32.0 °F 24.2 °F 26.6 °F 80% 29.85 in 10.0 mi SSW 9.2 mph - N/A   Overcast
9:15 AM 32.0 °F 25.6 °F 26.6 °F 80% 29.86 in 10.0 mi SW 6.9 mph - N/A   Overcast
9:35 AM 32.0 °F 24.2 °F 26.6 °F 80% 29.86 in 10.0 mi SW 9.2 mph - N/A   Mostly Cloudy
9:55 AM 33.8 °F 24.8 °F 28.4 °F 81% 29.85 in 10.0 mi SW 12.7 mph - N/A   Mostly Cloudy
10:15 AM 35.6 °F 26.6 °F 28.4 °F 75% 29.83 in 10.0 mi SSW 13.8 mph - N/A   Mostly Cloudy
10:35 AM 35.6 °F 27.5 °F 28.4 °F 75% 29.82 in 10.0 mi SSW 11.5 mph - N/A   Mostly Cloudy
10:55 AM 37.4 °F 29.3 °F 30.2 °F 75% 29.82 in 10.0 mi SSW 12.7 mph - N/A   Overcast
11:15 AM 39.2 °F 32.0 °F 32.0 °F 75% 29.82 in 10.0 mi SW 11.5 mph - N/A   Mostly Cloudy
11:35 AM 41.0 °F 34.7 °F 32.0 °F 70% 29.83 in 10.0 mi SW 10.4 mph - N/A   Partly Cloudy
11:55 AM 44.6 °F 38.4 °F 32.0 °F 61% 29.82 in 10.0 mi WSW 12.7 mph - N/A   Scattered Clouds
12:15 PM 46.4 °F 41.1 °F 32.0 °F 57% 29.83 in 10.0 mi West 11.5 mph 18.4 mph N/A   Mostly Cloudy
12:35 PM 48.2 °F - 32.0 °F 54% 29.83 in 10.0 mi WNW 13.8 mph 18.4 mph N/A   Partly Cloudy
12:55 PM 50.0 °F - 32.0 °F 50% 29.82 in 10.0 mi WNW 15.0 mph 20.7 mph N/A   Clear
1:15 PM 53.6 °F - 32.0 °F 44% 29.81 in 10.0 mi WNW 16.1 mph 19.6 mph N/A   Clear
1:35 PM 55.4 °F - 32.0 °F 41% 29.80 in 10.0 mi WNW 18.4 mph 24.2 mph N/A   Clear
1:55 PM 55.4 °F - 32.0 °F 41% 29.79 in 10.0 mi NW 29.9 mph 34.5 mph N/A   Clear
2:15 PM 55.4 °F - 28.4 °F 36% 29.80 in 10.0 mi NW 27.6 mph 35.7 mph N/A   Clear
2:35 PM 55.4 °F - 26.6 °F 33% 29.81 in 10.0 mi WNW 28.8 mph 36.8 mph N/A   Clear
2:55 PM 57.2 °F - 28.4 °F 33% 29.81 in 10.0 mi WNW 27.6 mph 34.5 mph N/A   Clear
3:15 PM 57.2 °F - 26.6 °F 31% 29.81 in 10.0 mi NW 25.3 mph 35.7 mph N/A   Clear
3:35 PM 57.2 °F - 26.6 °F 31% 29.82 in 10.0 mi NW 31.1 mph 38.0 mph N/A   Clear
3:55 PM 55.4 °F - 23.0 °F 29% 29.83 in 10.0 mi NW 23.0 mph 38.0 mph N/A   Clear
4:15 PM 55.4 °F - 23.0 °F 29% 29.85 in 10.0 mi NNW 28.8 mph 38.0 mph N/A   Clear
4:35 PM 55.4 °F - 23.0 °F 29% 29.85 in 10.0 mi NW 25.3 mph 38.0 mph N/A   Clear
4:55 PM 55.4 °F - 21.2 °F 26% 29.87 in 10.0 mi NNW 26.5 mph 38.0 mph N/A   Clear
5:15 PM 53.6 °F - 23.0 °F 30% 29.89 in 10.0 mi NNW 20.7 mph 29.9 mph N/A   Clear
5:35 PM 51.8 °F - 23.0 °F 33% 29.90 in 10.0 mi NNW 19.6 mph 28.8 mph N/A   Clear
5:55 PM 50.0 °F - 23.0 °F 35% 29.91 in 10.0 mi NNW 11.5 mph 21.9 mph N/A   Clear
6:15 PM 46.4 °F 41.5 °F 24.8 °F 43% 29.93 in 10.0 mi NNW 10.4 mph - N/A   Clear
6:35 PM 44.6 °F 39.7 °F 23.0 °F 43% 29.95 in 10.0 mi NNW 9.2 mph - N/A   Clear
6:55 PM 44.6 °F 39.7 °F 23.0 °F 43% 29.95 in 10.0 mi NNW 9.2 mph - N/A   Clear
7:15 PM 41.0 °F 35.2 °F 24.8 °F 53% 29.97 in 10.0 mi NNW 9.2 mph - N/A   Clear
7:35 PM 39.2 °F 33.0 °F 24.8 °F 56% 29.99 in 10.0 mi North 9.2 mph - N/A   Clear
7:55 PM 35.6 °F 30.7 °F 24.8 °F 65% 30.00 in 10.0 mi NNW 5.8 mph - N/A   Clear
8:15 PM 37.4 °F 31.4 °F 24.8 °F 60% 30.01 in 10.0 mi North 8.1 mph - N/A   Clear
8:35 PM 35.6 °F 32.8 °F 26.6 °F 70% 30.02 in 10.0 mi North 3.5 mph - N/A   Clear
8:55 PM 35.6 °F 31.7 °F 26.6 °F 70% 30.02 in 10.0 mi North 4.6 mph - N/A   Clear
9:15 PM 32.0 °F 23.6 °F 26.6 °F 80% 30.03 in 10.0 mi North 10.4 mph - N/A   Clear
9:35 PM 32.0 °F 26.4 °F 24.8 °F 75% 30.04 in 10.0 mi North 5.8 mph - N/A   Clear
9:55 PM 32.0 °F 27.5 °F 26.6 °F 80% 30.05 in 10.0 mi NNW 4.6 mph - N/A   Clear
10:15 PM 30.2 °F 23.4 °F 26.6 °F 86% 30.06 in 10.0 mi NNW 6.9 mph - N/A   Clear
10:35 PM 32.0 °F 27.5 °F 26.6 °F 80% 30.08 in 10.0 mi NNW 4.6 mph - N/A   Clear
10:55 PM 32.0 °F 25.6 °F 28.4 °F 87% 30.09 in 10.0 mi NNW 6.9 mph - N/A   Clear
11:15 PM 32.0 °F 26.4 °F 28.4 °F 87% 30.08 in 10.0 mi NNW 5.8 mph - N/A   Clear
11:35 PM 30.2 °F 23.4 °F 26.6 °F 86% 30.08 in 10.0 mi NNW 6.9 mph - N/A   Clear
11:55 PM 28.4 °F 21.2 °F 24.8 °F 86% 30.08 in 10.0 mi NNW 6.9 mph - N/A   Clear